7 * 24
多渠道服务支持
STARLINK-37043(NORAD编号68246)是美国SpaceX公司星链(Starlink)卫星互联网星座中的一颗低轨通信卫星。星链计划旨在构建全球覆盖的近地轨道卫星网络,为偏远及欠发达地区提供高速低延迟宽带接入服务。该卫星采用标准化星链平台设计,配备相控阵通信天线与氪离子推进系统,具备自主碰撞规避能力,运行在近地轨道,是SpaceX持续扩张星链星座、实现全球互联网覆盖目标的组成部分,承担太空通信组网功能,推动全球互联互通与数字普及。
美国
(US)
| 数据来源 | 国际轨道数据 |
| 星历时间: | 2026-06-10T04:58:18+0800 15小时前 查看轨道信息 |
| 半长轴: | 6796.809km |
| 偏心率: | 0.0001226 |
| 轨道倾角: | 53.159° |
| 近地点辐角 | 89.806° |
| 升交点赤经 | 224.588° |
| 平近点角 | 270.309° |
| 近地点: | 417.838km |
| 远地点: | 419.506km |
| 周期: | 92.943分钟 |
| 每日圈数: | 15.493345 |